星链-3533 (STARLINK-3533 )

导读

STARLINK-3533是美国太空探索技术公司Starlink卫星互联网项目中的卫星,于2022年2月21日发射升空,属于星链组网的批量部署卫星之一。星链计划旨在构建全球卫星互联网,这颗卫星承担着为地面用户提供低延迟宽带网络服务的任务,运行在近地轨道,是星链全球星座组网的组成单元。

基本信息
目录编号:
51715
目录名称:
STARLINK-3533
国际标识:
2022-016B
轨道中心:
EARTH
卫星名称:
星链-3533
卫星全名:
星链-3533 (STARLINK-3533 )
卫星状态:
在轨 (已飞行1577 天)
发射日期:
2022-02-21 UTC
国别 :
美国 (US)
星等 :
--
轨道信息
数据来源 国际轨道数据 AOE轨道数据
星历时间 2026-06-17T19:51:03+0800
5小时前
查看轨道信息
2026-06-15T06:00:00+0800
2天前
查看轨道信息
半长轴 6916.248km 6917.843km
偏心率 0.0001093 0.0001275
轨道倾角 53.160° 53.157°
近地点辐角 96.628° 79.402°
升交点赤经 240.989° 252.579°
平近点角 263.483° 311.614°
近地点 537.355km 538.823km
远地点 538.867km 540.589km
周期 95.404分钟 95.437分钟
每日圈数 15.093743 15.088523
详细信息
固有亮度:
5
最大亮度:
2.5
卫星平台:
Starlink v1.5
覆盖范围:
全球
运营商:
太空探索技术公司
运营商所在国:
美国
制造商(研发单位):
太空探索技术公司
制造商所在国:
美国
使用方式:
暂无
卫星简介
星链(Starlink)计划是由太空探索技术公司(SpaceX)提出的一个巨型低轨卫星互联网星座项目,计划在2019年至2024年间在太空搭建由约1.2万颗卫星组成的“星链”网络,其中1584颗将部署在地球上空550千米处的近地轨道,并从2020年开始工作。该卫星仍在工作。
2D轨道图
3D轨道图
轨道高度分析图
轨道倾角分析图
轨道综合分析图
查看轨道综合分析图